Skip Page Navigation
NASA JPL Caltech
NASA Logo - Jet Propulsion Laboratory + View the NASA Portal
+ Near-Earth Object (NEO) Program
Search JPL
JPL Home Earth Solar System Stars & Galaxies Technology
JPL Solar System Dynamics
BODIES ORBITS EPHEMERIDES TOOLS PHYSICAL DATA DISCOVERY FAQ SITE MAP
JPL Small-Body Database Browser
Search: [ help ]  
89136 (2001 US16)
Classification: Apollo [NEO, PHA]          SPK-ID: 2089136
Ephemeris | Orbit Diagram | Orbital Elements | Physical Parameters | Discovery Circumstances | Close-Approach Data ]

[ hide orbit diagram ]
Orbit Diagram
Note: Make sure you have Java enabled on your browser to see the applet. This applet is provided as a 3D orbit visualization tool. The applet was implemented using 2-body methods, and hence should not be used for determining accurate long-term trajectories (over several years or decades) or planetary encounter circumstances. For accurate long-term ephemerides, please instead use our Horizons system.
Orbit Viewer

Additional Notes: the orbits shown in the applet are color coded. The planets are white lines, and the asteroid/comet is a blue line. The bright white line indicates the portion of the orbit that is above the ecliptic plane, and the darker portion is below the ecliptic plane. Likewise for the asteroid/comet orbit, the light blue indicates the portion above the ecliptic plane, and the dark blue the portion below the ecliptic plane.

Orbit Viewer applet originally written and kindly provided by Osamu Ajiki (AstroArts), and further modified by Ron Baalke (JPL).


Orbital Elements at Epoch 2456400.5 (2013-Apr-18.0) TDB
Reference: JPL 119 (heliocentric ecliptic J2000)
 Element Value Uncertainty (1-sigma)   Units 
e .2527415118191199 7.5443e-09  
a 1.355737728862921 8.0505e-09 AU
q 1.013086525639886 7.3452e-09 AU
i 1.904655301061115 9.9698e-07 deg
node 175.9967236033796 2.4719e-05 deg
peri 67.05985439710102 2.4999e-05 deg
M 230.9222588871824 1.8843e-05 deg
tp 2456607.233475565813
(2013-Nov-10.73347557)
3.2008e-05 JED
period 576.5831549426005
1.58
5.1357e-06
1.406e-08
d
yr
n .6243678763661391 5.5613e-09 deg/d
Q 1.698388932085956 1.0085e-08 AU
  Orbit Determination Parameters
   # obs. used (total)      1065  
   # delay obs. used      2  
   # Doppler obs. used      2  
   data-arc span      4036 days (11.05 yr)  
   first obs. used      2001-10-18  
   last obs. used      2012-11-05  
   planetary ephem.      DE405  
   SB-pert. ephem.      SB405-CPV-2  
   condition code      0  
   fit RMS      .54504  
   data source      ORB  
   producer      Otto Matic  
   solution date      2013-Apr-29 15:38:37  

Additional Information
 Earth MOID = .0285783 AU 
 T_jup = 4.825 
[ show covariance matrix ]

Ephemeris | Orbit Diagram | Orbital Elements | Physical Parameters | Discovery Circumstances | Close-Approach Data ]

Physical Parameter Table
Parameter Symbol Value Units Sigma Reference Notes
absolute magnitude H 20.177 mag .54349 119 autocmod 2.5c
rotation period rot_per 14.39 h n/a Asteroid Lightcurve DataBase (Rev. 2013-May-01) Result based on less than full coverage, so that the period may be wrong by 30 percent or so.
Published Reference List:
[Behrend, R. (2004) Observatoire de Geneve web site, http://obswww.unige.ch/~behrend/page_cou.html]
[Pravec, P.; Wolf, M.; Sarounova, L. (2004) http://www.asu.cas.cz/~ppravec/neo.htm]

89136 (2001 US16)          Discovered 2001-Oct-23 by Spacewatch at Kitt Peak (691)
Reference: 20040830/Numbers.arcLast Updated: 2004-09-06

[ show close-approach data ]
Ephemeris | Orbit Diagram | Orbital Elements | Physical Parameters | Discovery Circumstances | Close-Approach Data ]
ABOUT SSD CREDITS/AWARDS PRIVACY/COPYRIGHT GLOSSARY LINKS
FirstGov 2013-May-26 05:12 UT
(server date/time)  
NASA Home Page
Site Manager:   Donald K. Yeomans
Webmaster  Alan B. Chamberlin